Regional Weather Roundup
Issued by NWS Jackson, KY

Home | Current Version | Previous Version | Text Only | Print | Product List | Glossary Off
Versions: 1 2 3 4 5 6 7 8 9 10 11 12 13 14 15 16 17 18 19 20 21 22 23 24 25 26 27 28 29 30 31 32 33 34 35 36 37 38 39 40 41 42 43 44 45 46 47 48 49 50

000
ASUS43 KJKL 280410
RWRJKL

EAST KENTUCKY HOURLY WEATHER ROUNDUP
NATIONAL WEATHER SERVICE JACKSON KY
1200 AM EDT MON JUL 28 2014

NOTE: "FAIR" INDICATES FEW OR NO CLOUDS BELOW 12,000 FEET WITH
NO SIGNIFICANT WEATHER AND/OR OBSTRUCTIONS TO VISIBILITY.

* THESE REPORTS ARE NOT UNDER NWS QUALITY CONTROL AND MAY NOT
  REPORT WEATHER SUCH AS PRECIPITATION AND FOG.

KYZ079-080-083-085-087-088-110-112-115-119-120-280500
...EASTERN KENTUCKY...

CITY           SKY/WX    TMP DP  RH WIND       PRES   REMARKS
JACKSON        TSTM      69  66  90 VRB7G18   29.86R VSB 3/4
LONDON         PTCLDY    72  68  87 CALM      29.87S
SOMERSET*      PTCLDY    68  68 100 S3        29.88R FOG
MONTICELLO*    PTCLDY    70  70 100 CALM      29.89R FOG
WILLIAMSBURG*    N/A     70  70 100 CALM      29.88F
MIDDLESBORO*   CLOUDY    69  69 100 CALM      29.87F
HARLAN APT*    CLOUDY    68  68 100 MISG      29.89F
BLACK MTN*       N/A     63  63 100 W3          N/A
PIKEVILLE APT* MOCLDY    70  66  88 SW3       29.83F
MOREHEAD APT*  MOCLDY    72  66  83 NW9G17    29.84S
$$

KYZ035-036-041-042-044-050-067-078-099-280500
...CENTRAL KENTUCKY...

CITY           SKY/WX    TMP DP  RH WIND       PRES   REMARKS
MT STERLING*   CLOUDY    72  66  83 NW7G17    29.86R
FLEMING/MASON* CLEAR     68  66  94 W7        29.82S
DANVILLE*      CLOUDY    73  64  73 N10       29.88R
RICHMOND*      CLOUDY    72  64  78 NW5       29.87R
LEXINGTON      CLOUDY    72  63  73 W7        29.85R
FRANKFORT      PTCLDY    72  61  68 W5        29.84R
$$

KYZ091>093-OHZ055-061-077-WVZ005-015-034-035-042-280500
...SOUTHERN OHIO/WEST VIRGINIA...

CITY           SKY/WX    TMP DP  RH WIND       PRES   REMARKS
COVINGTON      PTCLDY    68  64  87 W8        29.82R
COLUMBUS       PTCLDY    68  63  84 NW9       29.73R
DAYTON         PTCLDY    70  58  65 NW12      29.79S
WILMINGTON     PTCLDY    70  61  73 W8        29.78R
HUNTINGTON     CLOUDY    69  68  96 CALM      29.76F
CHARLESTON     TSTM      70  68  93 SW10      29.77R FOG
PINEVILLE*     PTCLDY    70  70 100 MISG      29.87F FOG
BECKLEY        MOCLDY    69  65  86 W9        29.85S
BLUEFIELD      HVY RAIN  70  63  78 SW24G37   29.91R
$$

VAZ002-007-008-TNZ017-027-036-066-071-280500
...SOUTHWEST VIRGINIA/EAST TENNESSEE...

CITY           SKY/WX    TMP DP  RH WIND       PRES   REMARKS
WISE*          CLOUDY    66  66 100 SW13      29.94F
JONESVILLE*      N/A     68  68 100 CALM      29.89F
ABINGDON*      LGT RAIN  68  67  96 W12G17    29.94R
BRISTOL        TSTM      68  65  90 CALM      29.93F
KNOXVILLE      CLOUDY    80  71  74 SW13      29.88R
OAK RIDGE      HVY RAIN  69  68  96 N8        29.94R VSB 1/2
CROSSVILLE     TSTM      70  66  87 SW10G26   29.97R FOG
NASHVILLE      CLOUDY    75  73  93 CALM      29.91R
$$

...KEY TO REMARKS...
VSB - VISIBILITY IN MILES
WCI - WIND CHILL INDEX
HX  - HEAT INDEX

$$



USA.gov is the U.S. government's official web portal to all federal, state and local government web resources and services.